Погода в Калаусе

Россия / Чеченская Республика     43°33′38″N   45°06′06″E
темп.,
°C
ветер,
м/с
пор.,
м/с
влажн.,
%
обл.,
%
осадки,
мм/ч
давл.,
гПа
погр.,
м
11 апреля, вс
вс1100:00+6сз1284100 0.0 102091
03:00+6ссз0186100 0.0 102018
06:00+5сз119174 0.0 102016
09:00+9св2271100 0.0 1019679
12:00+12св336398 0.0 10171026
15:00+13ссв226172 0.0 1016974
18:00+13з2266100 0.0 101650
21:00+11сз2374100 0.3 101691
12 апреля, пн
пн1200:00+9з238143 0.3 101646
03:00+8з228361 0.3 101638
06:00+8з2383100 0.0 101758
09:00+13зсз566465 0.0 1018717
12:00+15сз5460100 0.0 10181309
15:00+13ссз4578100 0.1 1019555
18:00+11зсз2585100 0.1 1020327
21:00+10зсз3587100 0.1 1021263
13 апреля, вт
вт1300:00+9зсз2487100 0.2 1020229
03:00+9з2487100 0.4 1020215
06:00+9зсз2588100 0.1 1021271
09:00+10сз3483100 0.2 1021366
12:00+11сз3480100 0.1 1021563
15:00+10зсз3486100 0.1 1021489
18:00+9зсз3590100 0.1 1021338
21:00+9зсз3693100 0.8 1021345
14 апреля, ср
ср1400:00+8з2594100 0.6 1019350
03:00+8зюз4791100 0.8 1018445
06:00+8зюз2689100 0.0 1018281
09:00+11зсз457898 0.0 1018659
12:00+14сз446594 0.0 10171118
15:00+14сз2361100 0.1 10171095
18:00+12сз247797 0.1 1017207
21:00+10з118564 0.1 101811
15 апреля, чт
чт1500:00+9з128836 0.0 101810
03:00+8зюз118842 0.0 101710
06:00+8юз00883 0.0 101810
09:00+14ссв11670 0.0 1017546
12:00+17св33520 0.0 10161128
15:00+19всв33443 0.0 10141313
18:00+17всв34545 0.0 101468
21:00+14вюв1156100 0.0 101510